{"data":{"norad_id":52375,"intl_designator":"2022-045AW","name":"STARLINK-3785","alt_names":[],"object_type":"PAYLOAD","status":"ACTIVE","operator":null,"country":"US","launch_date":"2022-04-29","launch_site_code":"AFETR","launch_vehicle":null,"mission":null,"orbit_class":"UNKNOWN","rcs_meters":null,"size_class":null,"mass_kg":null,"dimensions":null,"purposes":["comms"],"wikipedia_slug":null,"has_3d_model":false,"image_url":null,"decayed_at":null,"tle_current":{"epoch":"2026-05-25T04:43:51.707136Z","epoch_age_seconds":55198,"freshness":"FRESH","line1":"1 52375U 22045AW  26145.19712624  .00000019  00000+0  19263-4 0  9999","line2":"2 52375  53.2122 205.6668 0001210  99.2906 260.8223 15.08830780227476","mean_motion":15.0883078,"eccentricity":0.000121,"inclination_deg":53.2122,"raan_deg":205.6668,"arg_perigee_deg":99.2906,"mean_anomaly_deg":260.8223,"bstar":1.9263e-5,"rev_number":22747,"period_min":95.438137867256,"perigee_km":538.93450402201,"apogee_km":540.60863789618,"semimajor_km":6917.9085709591,"source":"CELESTRAK","updated_at":"2026-05-25T13:38:17.121891Z"}}}